Weather reports worldwide

Advertisment
Culdrose, United Kingdom (3809): temperature & dewpoint: 04.12.2018 10:00:00 - 10.12.2018 10:00:00 (GMT)Culdrose, United Kingdom (3809): wind speed & gusts: 04.12.2018 10:00:00 - 10.12.2018 10:00:00 (GMT)Culdrose, United Kingdom (3809): wind direction: 04.12.2018 10:00:00 - 10.12.2018 10:00:00 (GMT)Culdrose, United Kingdom (3809): reduced air pressure: 04.12.2018 10:00:00 - 10.12.2018 10:00:00 (GMT)Culdrose, United Kingdom (3809): visibility: 04.12.2018 10:00:00 - 10.12.2018 10:00:00 (GMT)Culdrose, United Kingdom (3809): precipitation: 04.12.2018 10:00:00 - 10.12.2018 10:00:00 (GMT)
Date & Time tt [°C] td [°C] ff [km/h] ff [kn] fx [km/h] fx [kn] dd ppp [hPa] vv [km] rr [mm]
10.12.2018 10:00:00 - - - - - - - - - -
10.12.2018 09:00:00 8,5 6,1 9 5 - - W 1030,6 10 0,0
10.12.2018 08:00:00 7,4 4,9 11 6 - - W 1030,3 25 0,0
10.12.2018 07:00:00 8,1 5,4 11 6 - - W 1030,3 10 0,0
10.12.2018 06:00:00 7,7 5,1 11 6 - - W 1030,4 25 0,0
10.12.2018 05:00:00 7,7 5,2 15 8 - - WNW 1030,0 10 0,0
10.12.2018 04:00:00 7,4 4,5 18 10 - - WNW 1030,0 20 0,0
10.12.2018 03:00:00 7,4 4,5 16 9 - - WNW 1029,9 10 0,0
10.12.2018 02:00:00 7,3 4,3 15 8 - - W 1029,7 23 0,0
10.12.2018 01:00:00 8,1 4,6 16 9 - - WNW 1029,4 26 0,0
10.12.2018 00:00:00 8,1 4,6 24 13 - - WNW 1029,2 10 0,0
09.12.2018 23:00:00 8,5 4,9 22 12 - - WNW 1028,5 29 0,0
09.12.2018 22:00:00 8,8 5,6 21 11 - - W 1028,3 22 0,0
09.12.2018 21:00:00 9,4 5,9 22 12 - - WNW 1027,9 10 0,0
09.12.2018 20:00:00 9,2 6,2 29 16 - - WNW 1027,2 20 0,0
09.12.2018 19:00:00 9,1 5,8 31 17 46 25 WNW 1026,3 20 0,0
09.12.2018 18:00:00 9,5 5,8 35 19 48 26 WNW 1025,6 23 0,0
09.12.2018 17:00:00 9,6 6,0 35 19 48 26 WNW 1024,7 21 0,0
09.12.2018 16:00:00 10,0 6,3 35 19 54 29 WNW 1023,7 20 0,0
09.12.2018 15:00:00 10,6 6,7 41 22 57 31 WNW 1022,8 20 0,0
09.12.2018 14:00:00 10,2 6,8 37 20 63 34 WNW 1021,8 10 0,4
09.12.2018 13:00:00 9,6 8,1 31 17 67 36 WNW 1021,0 6 0,4
09.12.2018 12:00:00 11,3 6,3 48 26 70 38 WNW 1019,9 10 0,0
09.12.2018 11:00:00 11,0 6,6 48 26 76 41 WNW 1018,9 10 0,0
09.12.2018 10:00:00 11,0 6,9 50 27 76 41 WNW 1017,3 10 0,0
09.12.2018 09:00:00 10,8 7,0 48 26 81 44 WNW 1015,7 10 0,0
09.12.2018 08:00:00 10,8 6,6 57 31 81 44 WNW 1013,8 10 0,0
09.12.2018 07:00:00 10,6 7,2 52 28 89 48 W 1012,6 10 0,0
09.12.2018 06:00:00 10,8 7,1 46 25 80 43 W 1011,8 10 0,0
09.12.2018 05:00:00 10,5 6,9 52 28 89 48 W 1011,2 16 0,0
09.12.2018 04:00:00 10,9 6,9 54 29 94 51 W 1010,6 10 0,0
09.12.2018 03:00:00 10,6 6,7 63 34 94 51 W 1010,0 10 0,0
09.12.2018 02:00:00 11,0 5,9 68 37 94 51 W 1009,7 13 0,0
09.12.2018 01:00:00 10,6 5,6 63 34 94 51 W 1009,5 13 0,0
09.12.2018 00:00:00 10,6 6,1 52 28 80 43 W 1009,2 12 0,0
08.12.2018 23:00:00 10,6 4,7 61 33 85 46 W 1008,7 13 0,0
08.12.2018 22:00:00 10,7 5,4 57 31 89 48 W 1008,6 16 0,0
08.12.2018 21:00:00 10,5 6,0 57 31 89 48 W 1008,4 13 0,0
08.12.2018 20:00:00 10,8 6,4 57 31 83 45 W 1008,0 10 0,0
08.12.2018 19:00:00 10,2 6,8 55 30 83 45 W 1007,7 12 0,2
08.12.2018 18:00:00 10,2 7,8 50 27 83 45 W 1007,6 10 0,4
08.12.2018 17:00:00 11,4 9,2 46 25 78 42 W 1007,3 7 0,0
08.12.2018 16:00:00 11,8 8,5 54 29 78 42 W 1007,2 9 0,0
08.12.2018 15:00:00 12,1 9,3 52 28 78 42 W 1007,3 10 0,0
08.12.2018 14:00:00 12,3 10,5 37 20 67 36 W 1007,3 11 0,0
08.12.2018 13:00:00 12,0 11,4 26 14 57 31 WSW 1008,2 10 0,2
08.12.2018 12:00:00 11,8 11,4 29 16 70 38 WSW 1008,7 3,5 0,0
08.12.2018 11:00:00 11,3 11,1 37 20 70 38 SW 1009,6 2,0 0,2
08.12.2018 10:00:00 10,8 10,5 41 22 67 36 WSW 1010,5 2,8 0,6
08.12.2018 09:00:00 10,6 10,2 34 18 61 33 WSW 1011,8 1,9 0,2
08.12.2018 08:00:00 10,7 9,3 35 19 54 29 WSW 1012,4 13 0,0
08.12.2018 07:00:00 10,7 8,7 28 15 57 31 WSW 1013,4 12 0,2
08.12.2018 06:00:00 10,7 7,1 37 20 59 32 W 1013,5 10 0,0
08.12.2018 05:00:00 10,7 6,9 39 21 61 33 W 1013,7 16 0,0
08.12.2018 04:00:00 10,6 6,6 42 23 65 35 W 1013,4 10 0,0
08.12.2018 03:00:00 10,4 5,9 48 26 72 39 W 1013,5 17 0,0
08.12.2018 02:00:00 10,4 6,0 48 26 78 42 W 1013,1 14 0,0
08.12.2018 01:00:00 10,1 6,2 46 25 68 37 W 1013,0 15 0,2
08.12.2018 00:00:00 10,5 5,5 52 28 74 40 W 1013,1 16 0,0
07.12.2018 23:00:00 10,5 5,9 37 20 68 37 W 1012,7 10 0,0
07.12.2018 22:00:00 10,0 5,8 50 27 68 37 W 1012,6 18 0,0
07.12.2018 21:00:00 9,8 5,6 50 27 68 37 W 1012,4 19 0,0
07.12.2018 20:00:00 9,9 5,4 48 26 68 37 W 1012,2 18 0,0
07.12.2018 19:00:00 9,6 5,4 42 23 72 39 W 1011,7 18 0,0
07.12.2018 18:00:00 9,3 3,9 52 28 80 43 W 1011,5 10 0,0
07.12.2018 17:00:00 9,3 3,5 50 27 72 39 W 1010,8 23 0,0
07.12.2018 16:00:00 7,7 4,9 41 22 78 42 W 1010,1 26 0,0
07.12.2018 15:00:00 8,7 4,4 50 27 89 48 W 1009,5 26 0,2
07.12.2018 14:00:00 8,2 4,0 39 21 89 48 W 1009,2 4,0 0,0
07.12.2018 13:00:00 8,7 3,5 29 16 70 38 W 1008,5 10 0,0
07.12.2018 12:00:00 8,7 4,2 37 20 67 36 W 1008,2 10 0,0
07.12.2018 11:00:00 9,6 3,6 39 21 78 42 W 1007,9 20 0,0
07.12.2018 10:00:00 7,6 4,8 46 25 78 42 W 1007,5 4,0 1,0
07.12.2018 09:00:00 9,1 4,1 34 18 65 35 W 1006,5 10 0,0
07.12.2018 08:00:00 9,9 6,3 29 16 61 33 W 1005,8 10 0,0
07.12.2018 07:00:00 10,4 9,4 24 13 48 26 W 1005,3 12 1,4
07.12.2018 06:00:00 9,8 9,0 26 14 67 36 W 1004,9 8 2,6
07.12.2018 05:00:00 12,0 11,9 41 22 70 38 SW 1005,0 4,0 3,4
07.12.2018 04:00:00 12,0 11,9 48 26 74 40 SW 1006,0 3,0 3,2
07.12.2018 03:00:00 12,0 11,9 42 23 72 39 SSW 1007,6 3,5 1,2
07.12.2018 02:00:00 12,0 11,8 41 22 68 37 SSW 1008,9 3,0 0,2
07.12.2018 01:00:00 12,1 12,0 39 21 68 37 SSW 1010,5 4,0 0,0
07.12.2018 00:00:00 12,1 12,1 41 22 61 33 SW 1012,0 0,8 0,0
06.12.2018 23:00:00 12,1 12,1 35 19 59 32 SW 1012,6 0,1 0,0
06.12.2018 22:00:00 12,1 12,1 35 19 57 31 SW 1013,5 0,1 0,2
06.12.2018 21:00:00 12,2 12,2 34 18 54 29 SW 1014,4 0,1 0,0
06.12.2018 20:00:00 12,2 12,2 31 17 55 30 SW 1014,9 0,2 0,0
06.12.2018 19:00:00 12,2 12,1 29 16 50 27 SW 1015,4 0,4 0,2
06.12.2018 18:00:00 12,1 12,1 34 18 54 29 WSW 1015,8 0,2 0,2
06.12.2018 17:00:00 12,1 12,1 31 17 54 29 SW 1015,9 1,0 0,2
06.12.2018 16:00:00 12,1 12,0 34 18 55 30 SW 1015,8 0,2 0,2
06.12.2018 15:00:00 12,0 11,9 31 17 52 28 SW 1015,9 1,5 0,2
06.12.2018 14:00:00 12,0 11,8 31 17 54 29 SW 1016,2 1,5 0,2
06.12.2018 13:00:00 12,2 11,6 31 17 52 28 SW 1016,5 3,0 0,0
06.12.2018 12:00:00 12,1 11,4 29 16 50 27 SW 1017,2 4,0 0,0
06.12.2018 11:00:00 12,1 11,1 39 21 50 27 SW 1017,6 7 0,0
06.12.2018 10:00:00 11,9 11,1 28 15 46 25 SW 1017,1 7 0,0
06.12.2018 09:00:00 11,7 11,1 28 15 46 25 SW 1017,0 7 0,0
06.12.2018 08:00:00 11,5 11,0 24 13 - - SW 1016,6 12 0,2
06.12.2018 07:00:00 11,3 11,0 16 9 - - WSW 1016,5 15 0,0
06.12.2018 06:00:00 11,1 10,9 18 10 - - WSW 1015,7 7 0,0
06.12.2018 05:00:00 11,1 10,9 22 12 46 25 W 1015,9 6 0,2
06.12.2018 04:00:00 11,2 11,1 15 8 - - WSW 1015,7 2,0 0,0
06.12.2018 03:00:00 11,0 11,0 15 8 - - WSW 1015,4 1,8 0,0
06.12.2018 02:00:00 11,0 10,9 16 9 - - WSW 1014,7 1,8 0,0
06.12.2018 01:00:00 11,3 11,1 16 9 - - WSW 1014,9 0,7 0,2
06.12.2018 00:00:00 11,3 11,0 16 9 - - W 1014,0 10 0,0
05.12.2018 23:00:00 11,6 11,2 9 5 - - W 1013,2 18 0,0
05.12.2018 22:00:00 11,7 11,5 9 5 - - WSW 1012,9 10 0,0
05.12.2018 21:00:00 12,0 11,9 13 7 - - W 1012,0 4,0 0,0
05.12.2018 20:00:00 11,9 11,9 11 6 - - W 1011,7 3,0 0,0
05.12.2018 19:00:00 12,1 12,0 13 7 - - WSW 1010,9 0,8 0,2
05.12.2018 18:00:00 12,0 12,0 13 7 - - WSW 1010,1 0,8 0,0
05.12.2018 17:00:00 11,7 11,6 16 9 - - SW 1009,6 3,5 0,0
05.12.2018 16:00:00 12,2 12,2 16 9 - - WSW 1009,6 3,0 0,0
05.12.2018 15:00:00 12,3 12,2 18 10 - - SW 1009,3 2,0 0,0
05.12.2018 14:00:00 12,5 12,5 18 10 - - SW 1009,6 1,5 0,0
05.12.2018 13:00:00 12,6 12,5 29 16 54 29 SW 1009,7 1,0 0,4
05.12.2018 12:00:00 12,5 12,4 34 18 55 30 SSW 1009,8 1,2 2,4
05.12.2018 11:00:00 12,4 12,3 31 17 59 32 SSW 1010,5 2,0 4,0
05.12.2018 10:00:00 12,4 12,3 31 17 59 32 S 1010,5 1,2 2,0
05.12.2018 09:00:00 12,3 12,1 31 17 57 31 S 1011,3 1,2 1,4
05.12.2018 08:00:00 12,2 11,9 29 16 52 28 S 1011,9 2,0 0,2
05.12.2018 07:00:00 12,3 11,8 26 14 48 26 S 1012,3 6 0,0
05.12.2018 06:00:00 12,2 11,8 28 15 48 26 S 1012,6 6 0,0
05.12.2018 05:00:00 12,4 11,9 28 15 52 28 S 1013,2 6 0,0
05.12.2018 04:00:00 12,4 11,9 28 15 52 28 SSW 1013,9 4,0 0,0
05.12.2018 03:00:00 12,5 12,0 26 14 48 26 SSW 1014,4 8 0,0
05.12.2018 02:00:00 12,5 12,1 26 14 - - SSW 1014,8 6 0,0
05.12.2018 01:00:00 12,6 11,8 22 12 - - S 1015,2 10 0,0
05.12.2018 00:00:00 12,5 12,3 22 12 - - SSW 1015,9 3,0 0,0
04.12.2018 23:00:00 12,4 12,3 22 12 48 26 S 1015,7 2,5 0,0
04.12.2018 22:00:00 12,4 12,2 22 12 - - S 1016,0 3,0 0,0
04.12.2018 21:00:00 11,6 11,4 22 12 50 27 SSE 1016,2 3,0 2,2
04.12.2018 20:00:00 10,9 10,6 28 15 46 25 ESE 1016,7 3,0 1,0
04.12.2018 19:00:00 10,5 10,2 26 14 - - ESE 1017,3 3,0 0,6
04.12.2018 18:00:00 10,0 9,5 24 13 - - ESE 1018,1 3,0 0,8
04.12.2018 17:00:00 9,6 8,8 22 12 - - ESE 1018,7 3,0 1,0
04.12.2018 16:00:00 10,2 7,8 21 11 - - ESE 1019,2 10 0,0
04.12.2018 15:00:00 10,2 7,8 18 10 - - ESE 1019,7 10 0,0
04.12.2018 14:00:00 10,2 7,2 16 9 - - ESE 1020,6 10 0,0
04.12.2018 13:00:00 9,4 6,8 16 9 - - E 1021,0 10 0,0
04.12.2018 12:00:00 9,3 6,8 15 8 - - E 1021,0 10 0,0
04.12.2018 11:00:00 8,0 6,3 13 7 - - E 1021,1 10 0,0
04.12.2018 10:00:00 5,9 4,7 16 9 - - ENE 1021,5 25 0,0

tt = temperature
td = dewpoint
ff = wind speed
fx = gusts
dd = wind direction
ppp = reduced air pressure
vv = visibility
rr = precipitation

Next stations